{"data":{"norad_id":63301,"intl_designator":"2025-056B","name":"KINEIS-4C","alt_names":[],"object_type":"PAYLOAD","status":"ACTIVE","operator":null,"country":"FR","launch_date":"2025-03-18","launch_site_code":"RLLB","launch_vehicle":null,"mission":null,"orbit_class":"UNKNOWN","rcs_meters":null,"size_class":null,"mass_kg":null,"dimensions":null,"purposes":[],"wikipedia_slug":null,"has_3d_model":false,"image_url":null,"decayed_at":null,"tle_current":{"epoch":"2026-09-22T22:08:03.480864Z","epoch_age_seconds":99550,"freshness":"FRESH","line1":"1 63301U 25056B   26265.92226251  .00000967  00000+0  16077-3 0  9996","line2":"2 63301  97.9201  27.4612 0003874  31.0820 329.0616 14.72292909 81518","mean_motion":14.72292909,"eccentricity":0.0003874,"inclination_deg":97.9201,"raan_deg":27.4612,"arg_perigee_deg":31.082,"mean_anomaly_deg":329.0616,"bstar":0.00016077,"rev_number":8151,"period_min":97.806624700656,"perigee_km":651.03358185472,"apogee_km":656.48189389763,"semimajor_km":7031.8947378762,"source":"CELESTRAK","updated_at":"2026-09-23T09:00:21.958984Z"}}}